SCP
0 0 0 0 0 0 0 0 0 0 0 0 0 0 0 0 0 0 0 0 0 0
0 0 0 0 0 0 0 0 0 0 0 0 0 0 0 0 0 0 0 0 0 0
0 0 0 0 0 0 0 0 0 0 0 0 0 0 0 0 0 0 0 0 0 0
0 0 0 0 0 0 0 0 0 0 0 0 0 0 0 0 0 0 0 0 0 0
0 0 0 0 0 0 0 0 0 0 0 0 0 0 0 0 0 0 0 0 0 0
0 0 0 0 0 0 0 0 0 0 0 0 0 0 0 0 0 0 0 0 0 0
0 0 0 0 0 0 0 0 0 0 0 0 0 0 0 0 0 0 0 0 0 0
0 0 0 0 0 0 0 0 0 0 0 0 0 0 0 0 0 0 0 0 0 0
0 0 0 0 0 0 0 0 0 0 0 0 0 0 0 0 0 0 0 0 0 0
0 0 0 0 0 0 0 0 0 0 0 0 0 0 0 0 0 0 0 0 0 0
0 0 0 0 0 0 0 0 0 0 0 0 0 0 0 0 0 0 0 0 0 0
0 0 0 0 0 0 0 0 0 0 0 0 0 0 0 0 0 0 0 0 0 0
0 0 0 0 0 0 0 0 0 0 0 0 0 0 0 0 0 0 0 0 0 0
0 0 0 0 0 0 0 0 0 0 0 0 0 0 0 0 0 0 0 0 0 0
Wind_Speed_500mb
87 87 83 83 88 89 85 78 68 65 63 59 53 50 49 47 48 47 45 45 44 43
95 93 87 83 88 87 83 75 70 69 65 61 57 53 50 49 49 47 46 46 45 46
96 94 92 88 87 86 83 82 78 73 68 63 57 55 53 50 49 47 47 47 47 49
99 100 100 94 89 86 85 86 81 75 68 63 58 56 55 52 50 48 46 48 51 52
106 104 101 99 93 87 84 84 80 74 69 65 60 58 56 54 48 47 47 50 53 56
103 103 102 100 96 86 81 83 82 79 72 67 63 60 55 54 48 47 49 52 54 58
99 99 100 100 95 85 80 83 83 79 72 69 64 59 55 51 47 48 51 52 55 59
94 96 97 98 93 82 76 80 79 78 74 70 64 57 52 49 47 50 52 52 55 59
93 94 94 93 88 82 78 79 81 81 76 68 61 53 49 48 47 50 50 53 55 58
90 91 91 89 86 85 82 82 85 82 74 65 56 50 44 48 51 49 47 50 54 55
86 89 88 87 85 84 84 84 85 80 71 61 53 45 46 54 49 44 45 47 50 52
84 89 87 87 87 84 83 84 84 76 67 59 46 47 56 50 44 40 42 44 45 47
81 85 84 85 84 77 78 80 81 73 65 51 51 57 51 43 37 39 40 42 45 50
80 82 82 81 83 80 84 84 79 69 59 53 59 50 45 39 32 33 33 40 47 48
Wind_Direction_500mb
234 239 239 239 241 241 240 240 239 240 239 242 247 254 261 268 273 276 281 286 289 294
236 239 240 241 243 242 241 239 236 237 240 242 244 251 260 265 269 276 281 286 290 295
237 240 241 243 244 243 240 236 235 236 237 240 246 253 258 264 269 272 279 285 290 295
239 239 240 242 244 243 240 237 235 235 237 240 245 254 260 263 265 271 280 284 289 293
241 241 241 243 243 242 239 237 236 234 236 239 244 249 256 262 267 273 280 285 289 295
243 243 243 242 242 239 237 235 234 234 234 238 243 249 254 260 264 271 279 285 292 299
243 244 243 243 241 236 235 234 232 233 233 237 241 247 254 258 265 275 281 287 295 298
245 243 242 242 239 235 233 232 230 230 232 235 240 246 250 256 265 275 283 291 297 298
243 242 241 239 236 233 230 229 227 227 229 234 239 245 251 260 271 278 289 296 298 300
241 241 239 236 231 229 228 226 224 224 227 232 237 243 253 265 273 280 288 294 299 303
240 238 235 232 228 226 225 223 222 222 225 228 233 243 253 265 269 278 286 295 298 307
238 235 231 228 226 224 221 219 218 220 222 223 228 244 253 259 267 275 288 294 304 316
236 234 231 229 224 222 222 220 217 218 218 218 234 240 246 253 261 276 290 301 314 315
234 232 228 227 220 217 214 213 213 215 217 224 230 235 240 244 259 277 294 303 308 315
Wind_Speed_850mb
87 87 83 83 88 89 85 78 68 65 63 59 53 50 49 47 48 47 45 45 44 43
95 93 87 83 88 87 83 75 70 69 65 61 57 53 50 49 49 47 46 46 45 46
96 94 92 88 87 86 83 82 78 73 68 63 57 55 53 50 49 47 47 47 47 49
99 100 100 94 89 86 85 86 81 75 68 63 58 56 55 52 50 48 46 48 51 52
106 104 101 99 93 87 84 84 80 74 69 65 60 58 56 54 48 47 47 50 53 56
103 103 102 100 96 86 81 83 82 79 72 67 63 60 55 54 48 47 49 52 54 58
99 99 100 100 95 85 80 83 83 79 72 69 64 59 55 51 47 48 51 52 55 59
94 96 97 98 93 82 76 80 79 78 74 70 64 57 52 49 47 50 52 52 55 59
93 94 94 93 88 82 78 79 81 81 76 68 61 53 49 48 47 50 50 53 55 58
90 91 91 89 86 85 82 82 85 82 74 65 56 50 44 48 51 49 47 50 54 55
86 89 88 87 85 84 84 84 85 80 71 61 53 45 46 54 49 44 45 47 50 52
84 89 87 87 87 84 83 84 84 76 67 59 46 47 56 50 44 40 42 44 45 47
81 85 84 85 84 77 78 80 81 73 65 51 51 57 51 43 37 39 40 42 45 50
80 82 82 81 83 80 84 84 79 69 59 53 59 50 45 39 32 33 33 40 47 48
Wind_Direction_850mb
234 239 239 239 241 241 240 240 239 240 239 242 247 254 261 268 273 276 281 286 289 294
236 239 240 241 243 242 241 239 236 237 240 242 244 251 260 265 269 276 281 286 290 295
237 240 241 243 244 243 240 236 235 236 237 240 246 253 258 264 269 272 279 285 290 295
239 239 240 242 244 243 240 237 235 235 237 240 245 254 260 263 265 271 280 284 289 293
241 241 241 243 243 242 239 237 236 234 236 239 244 249 256 262 267 273 280 285 289 295
243 243 243 242 242 239 237 235 234 234 234 238 243 249 254 260 264 271 279 285 292 299
243 244 243 243 241 236 235 234 232 233 233 237 241 247 254 258 265 275 281 287 295 298
245 243 242 242 239 235 233 232 230 230 232 235 240 246 250 256 265 275 283 291 297 298
243 242 241 239 236 233 230 229 227 227 229 234 239 245 251 260 271 278 289 296 298 300
241 241 239 236 231 229 228 226 224 224 227 232 237 243 253 265 273 280 288 294 299 303
240 238 235 232 228 226 225 223 222 222 225 228 233 243 253 265 269 278 286 295 298 307
238 235 231 228 226 224 221 219 218 220 222 223 228 244 253 259 267 275 288 294 304 316
236 234 231 229 224 222 222 220 217 218 218 218 234 240 246 253 261 276 290 301 314 315
234 232 228 227 220 217 214 213 213 215 217 224 230 235 240 244 259 277 294 303 308 315